Location: Newark
(50.0306°N, 2.3272°E)
Time: 23:23:17
(UTC+00:00)

Vanguard 1 - Pass Details

Date: 19 December 2019
Orbit: 651 x 3832 km, 34.2° (Epoch: 21 January)

Event Time Altitude Azimuth Distance (km) Brightness Sun altitude
Exits shadow 03:54:55 36° 224° (SW) 5,009 13.2 -35.6°
Maximum altitude 04:04:47 51° 177° (S) 4,398 13.1 -34.0°
Drops below altitude 10° 04:24:06 10° 110° (ESE) 5,999 14.8 -30.9°
Sets 04:28:12 0° 106° (ESE) 6,682 15.4 -30.3°
